FLOCK 4Q 33

导读 | 星芒AI

FLOCK 4Q 33 是Planet Labs公司发射的 Dove 系列小型地球观测卫星之一,主要用于高分辨率光学成像。该卫星属于“Flock”星座的一部分,旨在提供频繁的全球重访能力,支持环境监测、农业分析和灾害响应等应用。卫星采用标准化设计,具备轻量化和低成本优势,通过每日成像实现对地表变化的动态追踪。FLOCK 4Q 33 于2017年发射,运行在低地球轨道,为Planet的地球影像数据服务提供关键支持。

基本信息
目录编号:
58308
目录名称:
FLOCK 4Q 33
国际标识:
2023-174BE
轨道中心:
EARTH
卫星名称:
FLOCK 4Q 33
卫星全名:
--
卫星状态:
在轨 (已飞行711 天)
发射日期:
2023-11-11 UTC
国别 :
美国 (US)
星等 :
--
轨道信息
数据来源 国际轨道数据
星历时间: 2025-10-22T12:01:57+0800
10小时前
查看轨道信息
半长轴: 6819.866km
偏心率: 0.0006653
轨道倾角: 97.406°
近地点辐角 271.392°
升交点赤经 16.234°
平近点角 88.657°
近地点: 437.193km
远地点: 446.269km
周期: 93.416分钟
每日圈数: 15.41484
详细信息
使用方式:
暂无
2D轨道图
3D轨道图
轨道高度分析图
轨道倾角分析图
轨道综合分析图
查看轨道综合分析图